Kenai, AK

3:03 PM AKDT on July 28, 2016 (GMT -0800)
Kenai Municipal

Weather History for PAEN - July, 2013

Change the Weather History Date:

Monday, July 22, 2013

  Actual Average Record
Temperature  
Mean Temperature 62 °F -  
Max Temperature 75 °F 62 °F 78 °F (1955)
Min Temperature 52 °F 48 °F 39 °F (1965)
Degree Days  
Heating Degree Days 2    
Growing Degree Days 12 (Base 50)    
Moisture  
Dew Point 46 °F    
Average Humidity 54    
Maximum Humidity 74    
Minimum Humidity 35    
Precipitation  
Precipitation 0.00 in - - ()
Sea Level Pressure  
Sea Level Pressure 30.07 in    
Wind  
Wind Speed 8 mph (WNW)    
Max Wind Speed 17 mph    
Max Gust Speed 24 mph    
Visibility 10 miles    
Events      
Averages and records for this station are not official NWS values.
T = Trace of Precipitation, MM = Missing Value Source: NWS Daily Summary

Daily Weather History Graph

Daily Weather History Graph

Search for Another Location

Airport or City:

Trip Planner

Search our weather history database for the weather conditions in past years. The results will help you decide how hot, cold, wet, or windy it might be!

Date:

Astronomy

Jul. 22, 2013 Rise Set
Actual Time 5:19 AM AKDT 11:02 PM AKDT
Civil Twilight 4:05 AM AKDT 12:14 AM AKDT
Nautical Twilight Sun does not set 1:39 AM AKDT
Astronomical Twilight Sun does not set Sun does not set
Moon 10:18 PM AKDT (7/22) 5:52 AM AKDT (7/22)
Length of Visible Light 20h 08m
Length of Day
17h 42m
Full, 100% of the Moon is Illuminated
Jul 22
Full
Jul 29
Last Quarter
Aug 6
New
Aug 14
First Quarter
Aug 20
Full

Hourly Weather History & Observations

Time (AKDT) Temp. Dew Point Humidity Pressure Visibility Wind Dir Wind Speed Gust Speed Precip Events Conditions
12:53 AM 55.0 °F 46.0 °F 72% 30.03 in 10.0 mi North 5.8 mph - N/A   Clear
1:53 AM 57.9 °F 46.0 °F 65% 30.04 in 10.0 mi North 8.1 mph - N/A   Clear
2:53 AM 57.0 °F 45.0 °F 64% 30.04 in 10.0 mi North 8.1 mph - N/A   Clear
3:53 AM 59.0 °F 44.1 °F 58% 30.05 in 10.0 mi North 8.1 mph - N/A   Clear
4:53 AM 54.0 °F 44.1 °F 69% 30.06 in 10.0 mi Calm Calm - N/A   Clear
5:53 AM 52.0 °F 44.1 °F 74% 30.06 in 10.0 mi Calm Calm - N/A   Clear
6:53 AM 57.0 °F 45.0 °F 64% 30.07 in 10.0 mi Calm Calm - N/A   Clear
7:53 AM 62.1 °F 45.0 °F 53% 30.09 in 10.0 mi NNE 4.6 mph - N/A   Clear
8:53 AM 64.9 °F 45.0 °F 48% 30.09 in 10.0 mi North 13.8 mph - N/A   Clear
9:53 AM 68.0 °F 44.1 °F 42% 30.08 in 10.0 mi North 16.1 mph - N/A   Clear
10:53 AM 70.0 °F 43.0 °F 38% 30.08 in 10.0 mi North 17.3 mph - N/A   Clear
11:53 AM 72.0 °F 43.0 °F 35% 30.08 in 10.0 mi North 15.0 mph 24.2 mph N/A   Clear
12:53 PM 73.0 °F 44.1 °F 35% 30.08 in 10.0 mi North 11.5 mph - N/A   Clear
1:53 PM 72.0 °F 46.0 °F 40% 30.08 in 10.0 mi West 11.5 mph - N/A   Clear
2:53 PM 73.0 °F 46.0 °F 38% 30.09 in 10.0 mi WNW 10.4 mph - N/A   Clear
3:53 PM 72.0 °F 46.9 °F 41% 30.09 in 10.0 mi West 9.2 mph - N/A   Clear
4:53 PM 70.0 °F 46.9 °F 44% 30.08 in 10.0 mi WSW 10.4 mph - N/A   Clear
5:53 PM 69.1 °F 48.0 °F 47% 30.08 in 10.0 mi SSW 8.1 mph - N/A   Clear
6:53 PM 66.0 °F 46.9 °F 50% 30.08 in 10.0 mi SSW 8.1 mph - N/A   Clear
7:53 PM 64.9 °F 46.9 °F 52% 30.08 in 10.0 mi SSW 6.9 mph - N/A   Clear
8:53 PM 62.1 °F 48.0 °F 60% 30.08 in 10.0 mi SSW 5.8 mph - N/A   Clear
9:53 PM 59.0 °F 48.9 °F 69% 30.09 in 10.0 mi SSW 8.1 mph - N/A   Clear
10:53 PM 57.0 °F 48.9 °F 74% 30.09 in 10.0 mi SSW 8.1 mph - N/A   Clear
11:53 PM 59.0 °F 46.9 °F 64% 30.10 in 10.0 mi South 4.6 mph - N/A   Clear